Index of /20260430/WXO-DD/model_gdps/15km/00/198
Name Last modified Size Description
Parent Directory -
20260430T00Z_MSC_GDPS_AbsoluteVorticity_IsbL-0200_LatLon0.15_PT198H.grib2 2026-04-30 04:37 1.5M
20260430T00Z_MSC_GDPS_AbsoluteVorticity_IsbL-0250_LatLon0.15_PT198H.grib2 2026-04-30 04:37 1.3M
20260430T00Z_MSC_GDPS_AbsoluteVorticity_IsbL-0500_LatLon0.15_PT198H.grib2 2026-04-30 04:37 1.2M
20260430T00Z_MSC_GDPS_AbsoluteVorticity_IsbL-0700_LatLon0.15_PT198H.grib2 2026-04-30 04:37 1.3M
20260430T00Z_MSC_GDPS_AbsoluteVorticity_IsbL-0850_LatLon0.15_PT198H.grib2 2026-04-30 04:37 1.6M
20260430T00Z_MSC_GDPS_AirTemp-Max_AGL-2m_LatLon0.15_PT198H.grib2 2026-04-30 04:37 742K
20260430T00Z_MSC_GDPS_AirTemp-Min_AGL-2m_LatLon0.15_PT198H.grib2 2026-04-30 04:37 785K
20260430T00Z_MSC_GDPS_AirTemp_AGL-120m_LatLon0.15_PT198H.grib2 2026-04-30 04:37 899K
20260430T00Z_MSC_GDPS_AirTemp_AGL-2m_LatLon0.15_PT198H.grib2 2026-04-30 04:37 1.0M
20260430T00Z_MSC_GDPS_AirTemp_AGL-40m_LatLon0.15_PT198H.grib2 2026-04-30 04:37 919K
20260430T00Z_MSC_GDPS_AirTemp_AGL-80m_LatLon0.15_PT198H.grib2 2026-04-30 04:37 907K
20260430T00Z_MSC_GDPS_AirTemp_IsbL-0001_LatLon0.15_PT198H.grib2 2026-04-30 04:37 661K
20260430T00Z_MSC_GDPS_AirTemp_IsbL-0005_LatLon0.15_PT198H.grib2 2026-04-30 04:37 688K
20260430T00Z_MSC_GDPS_AirTemp_IsbL-0010_LatLon0.15_PT198H.grib2 2026-04-30 04:37 759K
20260430T00Z_MSC_GDPS_AirTemp_IsbL-0020_LatLon0.15_PT198H.grib2 2026-04-30 04:37 783K
20260430T00Z_MSC_GDPS_AirTemp_IsbL-0030_LatLon0.15_PT198H.grib2 2026-04-30 04:37 831K
20260430T00Z_MSC_GDPS_AirTemp_IsbL-0050_LatLon0.15_PT198H.grib2 2026-04-30 04:37 795K
20260430T00Z_MSC_GDPS_AirTemp_IsbL-0100_LatLon0.15_PT198H.grib2 2026-04-30 04:37 954K
20260430T00Z_MSC_GDPS_AirTemp_IsbL-0150_LatLon0.15_PT198H.grib2 2026-04-30 04:37 960K
20260430T00Z_MSC_GDPS_AirTemp_IsbL-0175_LatLon0.15_PT198H.grib2 2026-04-30 04:37 955K
20260430T00Z_MSC_GDPS_AirTemp_IsbL-0200_LatLon0.15_PT198H.grib2 2026-04-30 04:37 965K
20260430T00Z_MSC_GDPS_AirTemp_IsbL-0225_LatLon0.15_PT198H.grib2 2026-04-30 04:37 963K
20260430T00Z_MSC_GDPS_AirTemp_IsbL-0250_LatLon0.15_PT198H.grib2 2026-04-30 04:37 1.0M
20260430T00Z_MSC_GDPS_AirTemp_IsbL-0275_LatLon0.15_PT198H.grib2 2026-04-30 04:37 1.0M
20260430T00Z_MSC_GDPS_AirTemp_IsbL-0300_LatLon0.15_PT198H.grib2 2026-04-30 04:37 938K
20260430T00Z_MSC_GDPS_AirTemp_IsbL-0350_LatLon0.15_PT198H.grib2 2026-04-30 04:37 920K
20260430T00Z_MSC_GDPS_AirTemp_IsbL-0400_LatLon0.15_PT198H.grib2 2026-04-30 04:37 939K
20260430T00Z_MSC_GDPS_AirTemp_IsbL-0450_LatLon0.15_PT198H.grib2 2026-04-30 04:37 963K
20260430T00Z_MSC_GDPS_AirTemp_IsbL-0500_LatLon0.15_PT198H.grib2 2026-04-30 04:37 1.0M
20260430T00Z_MSC_GDPS_AirTemp_IsbL-0550_LatLon0.15_PT198H.grib2 2026-04-30 04:37 1.0M
20260430T00Z_MSC_GDPS_AirTemp_IsbL-0600_LatLon0.15_PT198H.grib2 2026-04-30 04:37 883K
20260430T00Z_MSC_GDPS_AirTemp_IsbL-0650_LatLon0.15_PT198H.grib2 2026-04-30 04:37 913K
20260430T00Z_MSC_GDPS_AirTemp_IsbL-0700_LatLon0.15_PT198H.grib2 2026-04-30 04:37 950K
20260430T00Z_MSC_GDPS_AirTemp_IsbL-0750_LatLon0.15_PT198H.grib2 2026-04-30 04:37 1.0M
20260430T00Z_MSC_GDPS_AirTemp_IsbL-0800_LatLon0.15_PT198H.grib2 2026-04-30 04:37 1.0M
20260430T00Z_MSC_GDPS_AirTemp_IsbL-0850_LatLon0.15_PT198H.grib2 2026-04-30 04:37 1.1M
20260430T00Z_MSC_GDPS_AirTemp_IsbL-0875_LatLon0.15_PT198H.grib2 2026-04-30 04:37 1.1M
20260430T00Z_MSC_GDPS_AirTemp_IsbL-0900_LatLon0.15_PT198H.grib2 2026-04-30 04:37 1.1M
20260430T00Z_MSC_GDPS_AirTemp_IsbL-0925_LatLon0.15_PT198H.grib2 2026-04-30 04:37 1.1M
20260430T00Z_MSC_GDPS_AirTemp_IsbL-0950_LatLon0.15_PT198H.grib2 2026-04-30 04:37 1.1M
20260430T00Z_MSC_GDPS_AirTemp_IsbL-0970_LatLon0.15_PT198H.grib2 2026-04-30 04:37 1.1M
20260430T00Z_MSC_GDPS_AirTemp_IsbL-0985_LatLon0.15_PT198H.grib2 2026-04-30 04:37 1.1M
20260430T00Z_MSC_GDPS_AirTemp_IsbL-1000_LatLon0.15_PT198H.grib2 2026-04-30 04:37 1.1M
20260430T00Z_MSC_GDPS_AirTemp_IsbL-1015_LatLon0.15_PT198H.grib2 2026-04-30 04:37 1.1M
20260430T00Z_MSC_GDPS_Albedo_Sfc_LatLon0.15_PT198H.grib2 2026-04-30 04:37 244K
20260430T00Z_MSC_GDPS_CAPE_Sfc_LatLon0.15_PT198H.grib2 2026-04-30 04:37 3.8M
20260430T00Z_MSC_GDPS_CIN_Sfc_LatLon0.15_PT198H.grib2 2026-04-30 04:37 2.9M
20260430T00Z_MSC_GDPS_CloudWater_EAtm_LatLon0.15_PT198H.grib2 2026-04-30 04:37 535K
20260430T00Z_MSC_GDPS_ConvectivePrecip-Accum_Sfc_LatLon0.15_PT198H.grib2 2026-04-30 04:37 3.7M
20260430T00Z_MSC_GDPS_DewPointDepression_AGL-2m_LatLon0.15_PT198H.grib2 2026-04-30 04:37 763K
20260430T00Z_MSC_GDPS_DewPointDepression_IsbL-0010_LatLon0.15_PT198H.grib2 2026-04-30 04:37 69K
20260430T00Z_MSC_GDPS_DewPointDepression_IsbL-0020_LatLon0.15_PT198H.grib2 2026-04-30 04:37 74K
20260430T00Z_MSC_GDPS_DewPointDepression_IsbL-0030_LatLon0.15_PT198H.grib2 2026-04-30 04:37 88K
20260430T00Z_MSC_GDPS_DewPointDepression_IsbL-0050_LatLon0.15_PT198H.grib2 2026-04-30 04:37 375K
20260430T00Z_MSC_GDPS_DewPointDepression_IsbL-0100_LatLon0.15_PT198H.grib2 2026-04-30 04:37 391K
20260430T00Z_MSC_GDPS_DewPointDepression_IsbL-0150_LatLon0.15_PT198H.grib2 2026-04-30 04:37 493K
20260430T00Z_MSC_GDPS_DewPointDepression_IsbL-0175_LatLon0.15_PT198H.grib2 2026-04-30 04:37 588K
20260430T00Z_MSC_GDPS_DewPointDepression_IsbL-0200_LatLon0.15_PT198H.grib2 2026-04-30 04:37 685K
20260430T00Z_MSC_GDPS_DewPointDepression_IsbL-0225_LatLon0.15_PT198H.grib2 2026-04-30 04:37 765K
20260430T00Z_MSC_GDPS_DewPointDepression_IsbL-0250_LatLon0.15_PT198H.grib2 2026-04-30 04:37 857K
20260430T00Z_MSC_GDPS_DewPointDepression_IsbL-0275_LatLon0.15_PT198H.grib2 2026-04-30 04:37 882K
20260430T00Z_MSC_GDPS_DewPointDepression_IsbL-0300_LatLon0.15_PT198H.grib2 2026-04-30 04:37 927K
20260430T00Z_MSC_GDPS_DewPointDepression_IsbL-0350_LatLon0.15_PT198H.grib2 2026-04-30 04:37 962K
20260430T00Z_MSC_GDPS_DewPointDepression_IsbL-0400_LatLon0.15_PT198H.grib2 2026-04-30 04:37 1.0M
20260430T00Z_MSC_GDPS_DewPointDepression_IsbL-0450_LatLon0.15_PT198H.grib2 2026-04-30 04:37 1.0M
20260430T00Z_MSC_GDPS_DewPointDepression_IsbL-0500_LatLon0.15_PT198H.grib2 2026-04-30 04:37 1.0M
20260430T00Z_MSC_GDPS_DewPointDepression_IsbL-0550_LatLon0.15_PT198H.grib2 2026-04-30 04:37 1.0M
20260430T00Z_MSC_GDPS_DewPointDepression_IsbL-0600_LatLon0.15_PT198H.grib2 2026-04-30 04:37 1.1M
20260430T00Z_MSC_GDPS_DewPointDepression_IsbL-0650_LatLon0.15_PT198H.grib2 2026-04-30 04:37 1.1M
20260430T00Z_MSC_GDPS_DewPointDepression_IsbL-0700_LatLon0.15_PT198H.grib2 2026-04-30 04:37 1.1M
20260430T00Z_MSC_GDPS_DewPointDepression_IsbL-0750_LatLon0.15_PT198H.grib2 2026-04-30 04:37 1.1M
20260430T00Z_MSC_GDPS_DewPointDepression_IsbL-0800_LatLon0.15_PT198H.grib2 2026-04-30 04:37 1.1M
20260430T00Z_MSC_GDPS_DewPointDepression_IsbL-0850_LatLon0.15_PT198H.grib2 2026-04-30 04:37 1.1M
20260430T00Z_MSC_GDPS_DewPointDepression_IsbL-0875_LatLon0.15_PT198H.grib2 2026-04-30 04:37 1.1M
20260430T00Z_MSC_GDPS_DewPointDepression_IsbL-0900_LatLon0.15_PT198H.grib2 2026-04-30 04:37 1.1M
20260430T00Z_MSC_GDPS_DewPointDepression_IsbL-0925_LatLon0.15_PT198H.grib2 2026-04-30 04:37 1.0M
20260430T00Z_MSC_GDPS_DewPointDepression_IsbL-0950_LatLon0.15_PT198H.grib2 2026-04-30 04:37 1.0M
20260430T00Z_MSC_GDPS_DewPointDepression_IsbL-0970_LatLon0.15_PT198H.grib2 2026-04-30 04:37 1.0M
20260430T00Z_MSC_GDPS_DewPointDepression_IsbL-0985_LatLon0.15_PT198H.grib2 2026-04-30 04:37 1.0M
20260430T00Z_MSC_GDPS_DewPointDepression_IsbL-1000_LatLon0.15_PT198H.grib2 2026-04-30 04:37 965K
20260430T00Z_MSC_GDPS_DewPointDepression_IsbL-1015_LatLon0.15_PT198H.grib2 2026-04-30 04:37 905K
20260430T00Z_MSC_GDPS_DewPoint_AGL-2m_LatLon0.15_PT198H.grib2 2026-04-30 04:37 603K
20260430T00Z_MSC_GDPS_DownwardLongwaveRadiationFlux-Accum_Sfc_LatLon0.15_PT198H.grib2 2026-04-30 04:37 707K
20260430T00Z_MSC_GDPS_DownwardShortwaveRadiationFlux-Accum_NTAtm_LatLon0.15_PT198H.grib2 2026-04-30 04:37 243K
20260430T00Z_MSC_GDPS_DownwardShortwaveRadiationFlux-Accum_Sfc_LatLon0.15_PT198H.grib2 2026-04-30 04:37 877K
20260430T00Z_MSC_GDPS_FreezingRain-Accum12h_Sfc_LatLon0.15_PT198H.grib2 2026-04-30 04:37 87K
20260430T00Z_MSC_GDPS_FreezingRain-Accum24h_Sfc_LatLon0.15_PT198H.grib2 2026-04-30 04:37 139K
20260430T00Z_MSC_GDPS_FreezingRain-Accum6h_Sfc_LatLon0.15_PT198H.grib2 2026-04-30 04:37 47K
20260430T00Z_MSC_GDPS_FreezingRain-Accum_Sfc_LatLon0.15_PT198H.grib2 2026-04-30 04:37 390K
20260430T00Z_MSC_GDPS_GeopotentialHeight_IsbL-0001_LatLon0.15_PT198H.grib2 2026-04-30 04:37 435K
20260430T00Z_MSC_GDPS_GeopotentialHeight_IsbL-0005_LatLon0.15_PT198H.grib2 2026-04-30 04:37 484K
20260430T00Z_MSC_GDPS_GeopotentialHeight_IsbL-0010_LatLon0.15_PT198H.grib2 2026-04-30 04:37 473K
20260430T00Z_MSC_GDPS_GeopotentialHeight_IsbL-0020_LatLon0.15_PT198H.grib2 2026-04-30 04:37 405K
20260430T00Z_MSC_GDPS_GeopotentialHeight_IsbL-0030_LatLon0.15_PT198H.grib2 2026-04-30 04:37 560K
20260430T00Z_MSC_GDPS_GeopotentialHeight_IsbL-0050_LatLon0.15_PT198H.grib2 2026-04-30 04:37 562K
20260430T00Z_MSC_GDPS_GeopotentialHeight_IsbL-0100_LatLon0.15_PT198H.grib2 2026-04-30 04:37 607K
20260430T00Z_MSC_GDPS_GeopotentialHeight_IsbL-0150_LatLon0.15_PT198H.grib2 2026-04-30 04:37 626K
20260430T00Z_MSC_GDPS_GeopotentialHeight_IsbL-0175_LatLon0.15_PT198H.grib2 2026-04-30 04:37 631K
20260430T00Z_MSC_GDPS_GeopotentialHeight_IsbL-0200_LatLon0.15_PT198H.grib2 2026-04-30 04:37 636K
20260430T00Z_MSC_GDPS_GeopotentialHeight_IsbL-0225_LatLon0.15_PT198H.grib2 2026-04-30 04:37 632K
20260430T00Z_MSC_GDPS_GeopotentialHeight_IsbL-0250_LatLon0.15_PT198H.grib2 2026-04-30 04:37 636K
20260430T00Z_MSC_GDPS_GeopotentialHeight_IsbL-0275_LatLon0.15_PT198H.grib2 2026-04-30 04:37 635K
20260430T00Z_MSC_GDPS_GeopotentialHeight_IsbL-0300_LatLon0.15_PT198H.grib2 2026-04-30 04:37 633K
20260430T00Z_MSC_GDPS_GeopotentialHeight_IsbL-0350_LatLon0.15_PT198H.grib2 2026-04-30 04:37 622K
20260430T00Z_MSC_GDPS_GeopotentialHeight_IsbL-0400_LatLon0.15_PT198H.grib2 2026-04-30 04:37 613K
20260430T00Z_MSC_GDPS_GeopotentialHeight_IsbL-0450_LatLon0.15_PT198H.grib2 2026-04-30 04:37 605K
20260430T00Z_MSC_GDPS_GeopotentialHeight_IsbL-0500_LatLon0.15_PT198H.grib2 2026-04-30 04:37 528K
20260430T00Z_MSC_GDPS_GeopotentialHeight_IsbL-0550_LatLon0.15_PT198H.grib2 2026-04-30 04:37 523K
20260430T00Z_MSC_GDPS_GeopotentialHeight_IsbL-0600_LatLon0.15_PT198H.grib2 2026-04-30 04:37 682K
20260430T00Z_MSC_GDPS_GeopotentialHeight_IsbL-0650_LatLon0.15_PT198H.grib2 2026-04-30 04:37 685K
20260430T00Z_MSC_GDPS_GeopotentialHeight_IsbL-0700_LatLon0.15_PT198H.grib2 2026-04-30 04:37 690K
20260430T00Z_MSC_GDPS_GeopotentialHeight_IsbL-0750_LatLon0.15_PT198H.grib2 2026-04-30 04:37 691K
20260430T00Z_MSC_GDPS_GeopotentialHeight_IsbL-0800_LatLon0.15_PT198H.grib2 2026-04-30 04:37 705K
20260430T00Z_MSC_GDPS_GeopotentialHeight_IsbL-0850_LatLon0.15_PT198H.grib2 2026-04-30 04:37 717K
20260430T00Z_MSC_GDPS_GeopotentialHeight_IsbL-0875_LatLon0.15_PT198H.grib2 2026-04-30 04:37 721K
20260430T00Z_MSC_GDPS_GeopotentialHeight_IsbL-0900_LatLon0.15_PT198H.grib2 2026-04-30 04:37 723K
20260430T00Z_MSC_GDPS_GeopotentialHeight_IsbL-0925_LatLon0.15_PT198H.grib2 2026-04-30 04:37 731K
20260430T00Z_MSC_GDPS_GeopotentialHeight_IsbL-0950_LatLon0.15_PT198H.grib2 2026-04-30 04:37 738K
20260430T00Z_MSC_GDPS_GeopotentialHeight_IsbL-0970_LatLon0.15_PT198H.grib2 2026-04-30 04:37 750K
20260430T00Z_MSC_GDPS_GeopotentialHeight_IsbL-0985_LatLon0.15_PT198H.grib2 2026-04-30 04:37 765K
20260430T00Z_MSC_GDPS_GeopotentialHeight_IsbL-1000_LatLon0.15_PT198H.grib2 2026-04-30 04:37 785K
20260430T00Z_MSC_GDPS_GeopotentialHeight_IsbL-1015_LatLon0.15_PT198H.grib2 2026-04-30 04:37 806K
20260430T00Z_MSC_GDPS_Humidex_Sfc_LatLon0.15_PT198H.grib2 2026-04-30 04:37 5.3M
20260430T00Z_MSC_GDPS_IcePellets-Accum12h_Sfc_LatLon0.15_PT198H.grib2 2026-04-30 04:37 12K
20260430T00Z_MSC_GDPS_IcePellets-Accum24h_Sfc_LatLon0.15_PT198H.grib2 2026-04-30 04:37 33K
20260430T00Z_MSC_GDPS_IcePellets-Accum6h_Sfc_LatLon0.15_PT198H.grib2 2026-04-30 04:37 6.1K
20260430T00Z_MSC_GDPS_IcePellets-Accum_Sfc_LatLon0.15_PT198H.grib2 2026-04-30 04:37 128K
20260430T00Z_MSC_GDPS_KIndex_Sfc_LatLon0.15_PT198H.grib2 2026-04-30 04:37 6.4M
20260430T00Z_MSC_GDPS_LatentHeatNetFlux_Sfc_LatLon0.15_PT198H.grib2 2026-04-30 04:37 545K
20260430T00Z_MSC_GDPS_LiftedIndex-MU-VT_IsbL-0500_LatLon0.15_PT198H.grib2 2026-04-30 04:37 5.4M
20260430T00Z_MSC_GDPS_NetLongwaveRadiationFlux-Accum_Sfc_LatLon0.15_PT198H.grib2 2026-04-30 04:37 896K
20260430T00Z_MSC_GDPS_NetShortwaveRadiationFlux-Accum_Sfc_LatLon0.15_PT198H.grib2 2026-04-30 04:37 855K
20260430T00Z_MSC_GDPS_O3MixingRatio_Sfc_LatLon0.15_PT198H.grib2 2026-04-30 04:51 1.9M
20260430T00Z_MSC_GDPS_O3_EAtm_LatLon0.15_PT198H.grib2 2026-04-30 04:51 2.4M
20260430T00Z_MSC_GDPS_PlanetaryBoundaryLayerHeight_Sfc_LatLon0.15_PT198H.grib2 2026-04-30 04:37 2.4M
20260430T00Z_MSC_GDPS_Precip-Accum12h_Sfc_LatLon0.15_PT198H.grib2 2026-04-30 04:37 4.0M
20260430T00Z_MSC_GDPS_Precip-Accum24h_Sfc_LatLon0.15_PT198H.grib2 2026-04-30 04:37 4.2M
20260430T00Z_MSC_GDPS_Precip-Accum6h_Sfc_LatLon0.15_PT198H.grib2 2026-04-30 04:37 3.7M
20260430T00Z_MSC_GDPS_Precip-Accum_Sfc_LatLon0.15_PT198H.grib2 2026-04-30 04:37 5.1M
20260430T00Z_MSC_GDPS_PrecipRate_Sfc_LatLon0.15_PT198H.grib2 2026-04-30 04:37 3.1M
20260430T00Z_MSC_GDPS_PrecipType-Instant_Sfc_LatLon0.15_PT198H.grib2 2026-04-30 04:37 1.5M
20260430T00Z_MSC_GDPS_Pressure_MSL_LatLon0.15_PT198H.grib2 2026-04-30 04:37 718K
20260430T00Z_MSC_GDPS_Pressure_PVU-1.5_LatLon0.15_PT198H.grib2 2026-04-30 04:37 5.7M
20260430T00Z_MSC_GDPS_Pressure_PVU-1_LatLon0.15_PT198H.grib2 2026-04-30 04:37 6.0M
20260430T00Z_MSC_GDPS_Pressure_PVU-2_LatLon0.15_PT198H.grib2 2026-04-30 04:37 5.6M
20260430T00Z_MSC_GDPS_Pressure_Sfc_LatLon0.15_PT198H.grib2 2026-04-30 04:37 1.1M
20260430T00Z_MSC_GDPS_RadiativeTemp_Sfc_LatLon0.15_PT198H.grib2 2026-04-30 04:37 670K
20260430T00Z_MSC_GDPS_Rain-Accum12h_Sfc_LatLon0.15_PT198H.grib2 2026-04-30 04:37 2.7M
20260430T00Z_MSC_GDPS_Rain-Accum24h_Sfc_LatLon0.15_PT198H.grib2 2026-04-30 04:37 2.9M
20260430T00Z_MSC_GDPS_Rain-Accum6h_Sfc_LatLon0.15_PT198H.grib2 2026-04-30 04:37 2.4M
20260430T00Z_MSC_GDPS_Rain-Accum_Sfc_LatLon0.15_PT198H.grib2 2026-04-30 04:37 4.0M
20260430T00Z_MSC_GDPS_RelativeHumidity_AGL-2m_LatLon0.15_PT198H.grib2 2026-04-30 04:37 1.0M
20260430T00Z_MSC_GDPS_RelativeHumidity_IsbL-0010_LatLon0.15_PT198H.grib2 2026-04-30 04:37 193K
20260430T00Z_MSC_GDPS_RelativeHumidity_IsbL-0020_LatLon0.15_PT198H.grib2 2026-04-30 04:37 157K
20260430T00Z_MSC_GDPS_RelativeHumidity_IsbL-0030_LatLon0.15_PT198H.grib2 2026-04-30 04:37 181K
20260430T00Z_MSC_GDPS_RelativeHumidity_IsbL-0050_LatLon0.15_PT198H.grib2 2026-04-30 04:37 330K
20260430T00Z_MSC_GDPS_RelativeHumidity_IsbL-0100_LatLon0.15_PT198H.grib2 2026-04-30 04:37 494K
20260430T00Z_MSC_GDPS_RelativeHumidity_IsbL-0150_LatLon0.15_PT198H.grib2 2026-04-30 04:37 673K
20260430T00Z_MSC_GDPS_RelativeHumidity_IsbL-0175_LatLon0.15_PT198H.grib2 2026-04-30 04:37 802K
20260430T00Z_MSC_GDPS_RelativeHumidity_IsbL-0200_LatLon0.15_PT198H.grib2 2026-04-30 04:37 711K
20260430T00Z_MSC_GDPS_RelativeHumidity_IsbL-0225_LatLon0.15_PT198H.grib2 2026-04-30 04:37 785K
20260430T00Z_MSC_GDPS_RelativeHumidity_IsbL-0250_LatLon0.15_PT198H.grib2 2026-04-30 04:37 859K
20260430T00Z_MSC_GDPS_RelativeHumidity_IsbL-0275_LatLon0.15_PT198H.grib2 2026-04-30 04:37 882K
20260430T00Z_MSC_GDPS_RelativeHumidity_IsbL-0300_LatLon0.15_PT198H.grib2 2026-04-30 04:37 924K
20260430T00Z_MSC_GDPS_RelativeHumidity_IsbL-0350_LatLon0.15_PT198H.grib2 2026-04-30 04:37 943K
20260430T00Z_MSC_GDPS_RelativeHumidity_IsbL-0400_LatLon0.15_PT198H.grib2 2026-04-30 04:37 968K
20260430T00Z_MSC_GDPS_RelativeHumidity_IsbL-0450_LatLon0.15_PT198H.grib2 2026-04-30 04:37 1.0M
20260430T00Z_MSC_GDPS_RelativeHumidity_IsbL-0500_LatLon0.15_PT198H.grib2 2026-04-30 04:37 1.0M
20260430T00Z_MSC_GDPS_RelativeHumidity_IsbL-0550_LatLon0.15_PT198H.grib2 2026-04-30 04:37 1.0M
20260430T00Z_MSC_GDPS_RelativeHumidity_IsbL-0600_LatLon0.15_PT198H.grib2 2026-04-30 04:37 1.0M
20260430T00Z_MSC_GDPS_RelativeHumidity_IsbL-0650_LatLon0.15_PT198H.grib2 2026-04-30 04:37 1.1M
20260430T00Z_MSC_GDPS_RelativeHumidity_IsbL-0700_LatLon0.15_PT198H.grib2 2026-04-30 04:37 1.1M
20260430T00Z_MSC_GDPS_RelativeHumidity_IsbL-0750_LatLon0.15_PT198H.grib2 2026-04-30 04:37 1.1M
20260430T00Z_MSC_GDPS_RelativeHumidity_IsbL-0800_LatLon0.15_PT198H.grib2 2026-04-30 04:37 1.2M
20260430T00Z_MSC_GDPS_RelativeHumidity_IsbL-0850_LatLon0.15_PT198H.grib2 2026-04-30 04:37 1.2M
20260430T00Z_MSC_GDPS_RelativeHumidity_IsbL-0875_LatLon0.15_PT198H.grib2 2026-04-30 04:37 1.2M
20260430T00Z_MSC_GDPS_RelativeHumidity_IsbL-0900_LatLon0.15_PT198H.grib2 2026-04-30 04:37 1.2M
20260430T00Z_MSC_GDPS_RelativeHumidity_IsbL-0925_LatLon0.15_PT198H.grib2 2026-04-30 04:37 1.2M
20260430T00Z_MSC_GDPS_RelativeHumidity_IsbL-0950_LatLon0.15_PT198H.grib2 2026-04-30 04:37 1.2M
20260430T00Z_MSC_GDPS_RelativeHumidity_IsbL-0970_LatLon0.15_PT198H.grib2 2026-04-30 04:37 1.2M
20260430T00Z_MSC_GDPS_RelativeHumidity_IsbL-0985_LatLon0.15_PT198H.grib2 2026-04-30 04:37 1.1M
20260430T00Z_MSC_GDPS_RelativeHumidity_IsbL-1000_LatLon0.15_PT198H.grib2 2026-04-30 04:37 1.1M
20260430T00Z_MSC_GDPS_RelativeHumidity_IsbL-1015_LatLon0.15_PT198H.grib2 2026-04-30 04:37 1.0M
20260430T00Z_MSC_GDPS_RelativeVorticity_IsbL-0200_LatLon0.15_PT198H.grib2 2026-04-30 04:37 1.5M
20260430T00Z_MSC_GDPS_RelativeVorticity_IsbL-0250_LatLon0.15_PT198H.grib2 2026-04-30 04:37 1.3M
20260430T00Z_MSC_GDPS_RelativeVorticity_IsbL-0500_LatLon0.15_PT198H.grib2 2026-04-30 04:37 1.5M
20260430T00Z_MSC_GDPS_RelativeVorticity_IsbL-0700_LatLon0.15_PT198H.grib2 2026-04-30 04:37 1.6M
20260430T00Z_MSC_GDPS_RelativeVorticity_IsbL-0850_LatLon0.15_PT198H.grib2 2026-04-30 04:37 1.6M
20260430T00Z_MSC_GDPS_Runoff-Accum_Sfc_LatLon0.15_PT198H.grib2 2026-04-30 04:37 130K
20260430T00Z_MSC_GDPS_SensibleHeatNetFlux_Sfc_LatLon0.15_PT198H.grib2 2026-04-30 04:37 484K
20260430T00Z_MSC_GDPS_ShowalterIndex_IsbL-0500_LatLon0.15_PT198H.grib2 2026-04-30 04:37 6.2M
20260430T00Z_MSC_GDPS_Snow-Accum12h_Sfc_LatLon0.15_PT198H.grib2 2026-04-30 04:37 1.3M
20260430T00Z_MSC_GDPS_Snow-Accum24h_Sfc_LatLon0.15_PT198H.grib2 2026-04-30 04:37 1.5M
20260430T00Z_MSC_GDPS_Snow-Accum6h_Sfc_LatLon0.15_PT198H.grib2 2026-04-30 04:37 1.4M
20260430T00Z_MSC_GDPS_Snow-Accum_Sfc_LatLon0.15_PT198H.grib2 2026-04-30 04:37 2.1M
20260430T00Z_MSC_GDPS_SnowDensity_Sfc_LatLon0.15_PT198H.grib2 2026-04-30 04:37 259K
20260430T00Z_MSC_GDPS_SnowDepth_Sfc_LatLon0.15_PT198H.grib2 2026-04-30 04:37 1.7M
20260430T00Z_MSC_GDPS_SoilTemp_DBS-0to10cm_LatLon0.15_PT198H.grib2 2026-04-30 04:37 513K
20260430T00Z_MSC_GDPS_SoilTemp_Sfc_LatLon0.15_PT198H.grib2 2026-04-30 04:37 582K
20260430T00Z_MSC_GDPS_SoilVolumetricIceContent_Sfc_LatLon0.15_PT198H.grib2 2026-04-30 04:37 184K
20260430T00Z_MSC_GDPS_SoilVolumetricWaterContent_DBS-0to10cm_LatLon0.15_PT198H.grib2 2026-04-30 04:37 594K
20260430T00Z_MSC_GDPS_SoilVolumetricWaterContent_DBS-0to1cm_LatLon0.15_PT198H.grib2 2026-04-30 04:37 651K
20260430T00Z_MSC_GDPS_SpecificHumidity_AGL-120m_LatLon0.15_PT198H.grib2 2026-04-30 04:37 1.1M
20260430T00Z_MSC_GDPS_SpecificHumidity_AGL-2m_LatLon0.15_PT198H.grib2 2026-04-30 04:37 1.2M
20260430T00Z_MSC_GDPS_SpecificHumidity_AGL-40m_LatLon0.15_PT198H.grib2 2026-04-30 04:37 1.1M
20260430T00Z_MSC_GDPS_SpecificHumidity_AGL-80m_LatLon0.15_PT198H.grib2 2026-04-30 04:37 1.1M
20260430T00Z_MSC_GDPS_SpecificHumidity_IsbL-0001_LatLon0.15_PT198H.grib2 2026-04-30 04:37 1.1M
20260430T00Z_MSC_GDPS_SpecificHumidity_IsbL-0005_LatLon0.15_PT198H.grib2 2026-04-30 04:37 1.0M
20260430T00Z_MSC_GDPS_SpecificHumidity_IsbL-0010_LatLon0.15_PT198H.grib2 2026-04-30 04:37 1.1M
20260430T00Z_MSC_GDPS_SpecificHumidity_IsbL-0020_LatLon0.15_PT198H.grib2 2026-04-30 04:37 1.2M
20260430T00Z_MSC_GDPS_SpecificHumidity_IsbL-0030_LatLon0.15_PT198H.grib2 2026-04-30 04:37 1.4M
20260430T00Z_MSC_GDPS_SpecificHumidity_IsbL-0050_LatLon0.15_PT198H.grib2 2026-04-30 04:37 1.5M
20260430T00Z_MSC_GDPS_SpecificHumidity_IsbL-0100_LatLon0.15_PT198H.grib2 2026-04-30 04:37 1.5M
20260430T00Z_MSC_GDPS_SpecificHumidity_IsbL-0150_LatLon0.15_PT198H.grib2 2026-04-30 04:37 1.3M
20260430T00Z_MSC_GDPS_SpecificHumidity_IsbL-0175_LatLon0.15_PT198H.grib2 2026-04-30 04:37 1.3M
20260430T00Z_MSC_GDPS_SpecificHumidity_IsbL-0200_LatLon0.15_PT198H.grib2 2026-04-30 04:37 1.3M
20260430T00Z_MSC_GDPS_SpecificHumidity_IsbL-0225_LatLon0.15_PT198H.grib2 2026-04-30 04:37 1.3M
20260430T00Z_MSC_GDPS_SpecificHumidity_IsbL-0250_LatLon0.15_PT198H.grib2 2026-04-30 04:37 1.4M
20260430T00Z_MSC_GDPS_SpecificHumidity_IsbL-0275_LatLon0.15_PT198H.grib2 2026-04-30 04:37 1.3M
20260430T00Z_MSC_GDPS_SpecificHumidity_IsbL-0300_LatLon0.15_PT198H.grib2 2026-04-30 04:37 1.2M
20260430T00Z_MSC_GDPS_SpecificHumidity_IsbL-0350_LatLon0.15_PT198H.grib2 2026-04-30 04:37 1.2M
20260430T00Z_MSC_GDPS_SpecificHumidity_IsbL-0400_LatLon0.15_PT198H.grib2 2026-04-30 04:37 1.5M
20260430T00Z_MSC_GDPS_SpecificHumidity_IsbL-0450_LatLon0.15_PT198H.grib2 2026-04-30 04:37 1.3M
20260430T00Z_MSC_GDPS_SpecificHumidity_IsbL-0500_LatLon0.15_PT198H.grib2 2026-04-30 04:37 1.4M
20260430T00Z_MSC_GDPS_SpecificHumidity_IsbL-0550_LatLon0.15_PT198H.grib2 2026-04-30 04:37 1.6M
20260430T00Z_MSC_GDPS_SpecificHumidity_IsbL-0600_LatLon0.15_PT198H.grib2 2026-04-30 04:37 1.8M
20260430T00Z_MSC_GDPS_SpecificHumidity_IsbL-0650_LatLon0.15_PT198H.grib2 2026-04-30 04:37 1.5M
20260430T00Z_MSC_GDPS_SpecificHumidity_IsbL-0700_LatLon0.15_PT198H.grib2 2026-04-30 04:37 1.6M
20260430T00Z_MSC_GDPS_SpecificHumidity_IsbL-0750_LatLon0.15_PT198H.grib2 2026-04-30 04:37 1.7M
20260430T00Z_MSC_GDPS_SpecificHumidity_IsbL-0800_LatLon0.15_PT198H.grib2 2026-04-30 04:37 1.9M
20260430T00Z_MSC_GDPS_SpecificHumidity_IsbL-0850_LatLon0.15_PT198H.grib2 2026-04-30 04:37 1.9M
20260430T00Z_MSC_GDPS_SpecificHumidity_IsbL-0875_LatLon0.15_PT198H.grib2 2026-04-30 04:37 1.9M
20260430T00Z_MSC_GDPS_SpecificHumidity_IsbL-0900_LatLon0.15_PT198H.grib2 2026-04-30 04:37 1.6M
20260430T00Z_MSC_GDPS_SpecificHumidity_IsbL-0925_LatLon0.15_PT198H.grib2 2026-04-30 04:37 1.6M
20260430T00Z_MSC_GDPS_SpecificHumidity_IsbL-0950_LatLon0.15_PT198H.grib2 2026-04-30 04:37 1.6M
20260430T00Z_MSC_GDPS_SpecificHumidity_IsbL-0970_LatLon0.15_PT198H.grib2 2026-04-30 04:37 1.5M
20260430T00Z_MSC_GDPS_SpecificHumidity_IsbL-0985_LatLon0.15_PT198H.grib2 2026-04-30 04:37 1.5M
20260430T00Z_MSC_GDPS_SpecificHumidity_IsbL-1000_LatLon0.15_PT198H.grib2 2026-04-30 04:37 1.5M
20260430T00Z_MSC_GDPS_SpecificHumidity_IsbL-1015_LatLon0.15_PT198H.grib2 2026-04-30 04:37 1.5M
20260430T00Z_MSC_GDPS_SpecificHumidity_Sfc_LatLon0.15_PT198H.grib2 2026-04-30 04:37 679K
20260430T00Z_MSC_GDPS_Thickness_IsbL-0850to0700_LatLon0.15_PT198H.grib2 2026-04-30 04:37 470K
20260430T00Z_MSC_GDPS_Thickness_IsbL-1000to0500_LatLon0.15_PT198H.grib2 2026-04-30 04:37 373K
20260430T00Z_MSC_GDPS_Thickness_IsbL-1000to0850_LatLon0.15_PT198H.grib2 2026-04-30 04:37 487K
20260430T00Z_MSC_GDPS_TotalCloudCover_Sfc_LatLon0.15_PT198H.grib2 2026-04-30 04:37 816K
20260430T00Z_MSC_GDPS_TotalTotalsIndex_Sfc_LatLon0.15_PT198H.grib2 2026-04-30 04:37 6.2M
20260430T00Z_MSC_GDPS_UVIndex-ClearSky_Sfc_LatLon0.15_PT198H.grib2 2026-04-30 04:51 1.1M
20260430T00Z_MSC_GDPS_UVIndex_Sfc_LatLon0.15_PT198H.grib2 2026-04-30 04:51 1.5M
20260430T00Z_MSC_GDPS_UpwardLongwaveRadiationFlux_NTAtm_LatLon0.15_PT198H.grib2 2026-04-30 04:37 829K
20260430T00Z_MSC_GDPS_VerticalVelocity_IsbL-0200_LatLon0.15_PT198H.grib2 2026-04-30 04:37 926K
20260430T00Z_MSC_GDPS_VerticalVelocity_IsbL-0250_LatLon0.15_PT198H.grib2 2026-04-30 04:37 1.0M
20260430T00Z_MSC_GDPS_VerticalVelocity_IsbL-0500_LatLon0.15_PT198H.grib2 2026-04-30 04:37 1.3M
20260430T00Z_MSC_GDPS_VerticalVelocity_IsbL-0600_LatLon0.15_PT198H.grib2 2026-04-30 04:37 1.0M
20260430T00Z_MSC_GDPS_VerticalVelocity_IsbL-0700_LatLon0.15_PT198H.grib2 2026-04-30 04:37 1.1M
20260430T00Z_MSC_GDPS_VerticalVelocity_IsbL-0850_LatLon0.15_PT198H.grib2 2026-04-30 04:37 1.3M
20260430T00Z_MSC_GDPS_WindChill_Sfc_LatLon0.15_PT198H.grib2 2026-04-30 04:37 5.3M
20260430T00Z_MSC_GDPS_WindDir_AGL-10m_LatLon0.15_PT198H.grib2 2026-04-30 04:37 1.3M
20260430T00Z_MSC_GDPS_WindDir_AGL-120m_LatLon0.15_PT198H.grib2 2026-04-30 04:37 1.3M
20260430T00Z_MSC_GDPS_WindDir_AGL-40m_LatLon0.15_PT198H.grib2 2026-04-30 04:37 1.4M
20260430T00Z_MSC_GDPS_WindDir_AGL-80m_LatLon0.15_PT198H.grib2 2026-04-30 04:37 1.3M
20260430T00Z_MSC_GDPS_WindDir_IsbL-0001_LatLon0.15_PT198H.grib2 2026-04-30 04:37 656K
20260430T00Z_MSC_GDPS_WindDir_IsbL-0005_LatLon0.15_PT198H.grib2 2026-04-30 04:37 815K
20260430T00Z_MSC_GDPS_WindDir_IsbL-0010_LatLon0.15_PT198H.grib2 2026-04-30 04:37 844K
20260430T00Z_MSC_GDPS_WindDir_IsbL-0020_LatLon0.15_PT198H.grib2 2026-04-30 04:37 926K
20260430T00Z_MSC_GDPS_WindDir_IsbL-0030_LatLon0.15_PT198H.grib2 2026-04-30 04:37 940K
20260430T00Z_MSC_GDPS_WindDir_IsbL-0050_LatLon0.15_PT198H.grib2 2026-04-30 04:37 947K
20260430T00Z_MSC_GDPS_WindDir_IsbL-0100_LatLon0.15_PT198H.grib2 2026-04-30 04:37 1.0M
20260430T00Z_MSC_GDPS_WindDir_IsbL-0150_LatLon0.15_PT198H.grib2 2026-04-30 04:37 1.0M
20260430T00Z_MSC_GDPS_WindDir_IsbL-0175_LatLon0.15_PT198H.grib2 2026-04-30 04:37 1.0M
20260430T00Z_MSC_GDPS_WindDir_IsbL-0200_LatLon0.15_PT198H.grib2 2026-04-30 04:37 1.1M
20260430T00Z_MSC_GDPS_WindDir_IsbL-0225_LatLon0.15_PT198H.grib2 2026-04-30 04:37 1.1M
20260430T00Z_MSC_GDPS_WindDir_IsbL-0250_LatLon0.15_PT198H.grib2 2026-04-30 04:37 1.1M
20260430T00Z_MSC_GDPS_WindDir_IsbL-0275_LatLon0.15_PT198H.grib2 2026-04-30 04:37 1.2M
20260430T00Z_MSC_GDPS_WindDir_IsbL-0300_LatLon0.15_PT198H.grib2 2026-04-30 04:37 1.2M
20260430T00Z_MSC_GDPS_WindDir_IsbL-0350_LatLon0.15_PT198H.grib2 2026-04-30 04:37 1.2M
20260430T00Z_MSC_GDPS_WindDir_IsbL-0400_LatLon0.15_PT198H.grib2 2026-04-30 04:37 1.3M
20260430T00Z_MSC_GDPS_WindDir_IsbL-0450_LatLon0.15_PT198H.grib2 2026-04-30 04:37 1.3M
20260430T00Z_MSC_GDPS_WindDir_IsbL-0500_LatLon0.15_PT198H.grib2 2026-04-30 04:37 1.3M
20260430T00Z_MSC_GDPS_WindDir_IsbL-0550_LatLon0.15_PT198H.grib2 2026-04-30 04:37 1.4M
20260430T00Z_MSC_GDPS_WindDir_IsbL-0600_LatLon0.15_PT198H.grib2 2026-04-30 04:37 1.4M
20260430T00Z_MSC_GDPS_WindDir_IsbL-0650_LatLon0.15_PT198H.grib2 2026-04-30 04:37 1.5M
20260430T00Z_MSC_GDPS_WindDir_IsbL-0700_LatLon0.15_PT198H.grib2 2026-04-30 04:37 1.6M
20260430T00Z_MSC_GDPS_WindDir_IsbL-0750_LatLon0.15_PT198H.grib2 2026-04-30 04:37 1.6M
20260430T00Z_MSC_GDPS_WindDir_IsbL-0800_LatLon0.15_PT198H.grib2 2026-04-30 04:37 1.8M
20260430T00Z_MSC_GDPS_WindDir_IsbL-0850_LatLon0.15_PT198H.grib2 2026-04-30 04:37 1.9M
20260430T00Z_MSC_GDPS_WindDir_IsbL-0875_LatLon0.15_PT198H.grib2 2026-04-30 04:37 1.9M
20260430T00Z_MSC_GDPS_WindDir_IsbL-0900_LatLon0.15_PT198H.grib2 2026-04-30 04:37 1.9M
20260430T00Z_MSC_GDPS_WindDir_IsbL-0925_LatLon0.15_PT198H.grib2 2026-04-30 04:37 1.9M
20260430T00Z_MSC_GDPS_WindDir_IsbL-0950_LatLon0.15_PT198H.grib2 2026-04-30 04:37 1.9M
20260430T00Z_MSC_GDPS_WindDir_IsbL-0970_LatLon0.15_PT198H.grib2 2026-04-30 04:37 2.0M
20260430T00Z_MSC_GDPS_WindDir_IsbL-0985_LatLon0.15_PT198H.grib2 2026-04-30 04:37 2.0M
20260430T00Z_MSC_GDPS_WindDir_IsbL-1000_LatLon0.15_PT198H.grib2 2026-04-30 04:37 2.0M
20260430T00Z_MSC_GDPS_WindDir_IsbL-1015_LatLon0.15_PT198H.grib2 2026-04-30 04:37 2.0M
20260430T00Z_MSC_GDPS_WindGust-Max_AGL-10m_LatLon0.15_PT198H.grib2 2026-04-30 04:37 2.2M
20260430T00Z_MSC_GDPS_WindGust-Min_AGL-10m_LatLon0.15_PT198H.grib2 2026-04-30 04:37 2.1M
20260430T00Z_MSC_GDPS_WindGust_AGL-10m_LatLon0.15_PT198H.grib2 2026-04-30 04:37 2.1M
20260430T00Z_MSC_GDPS_WindSpeed_AGL-10m_LatLon0.15_PT198H.grib2 2026-04-30 04:37 1.1M
20260430T00Z_MSC_GDPS_WindSpeed_AGL-120m_LatLon0.15_PT198H.grib2 2026-04-30 04:37 1.2M
20260430T00Z_MSC_GDPS_WindSpeed_AGL-40m_LatLon0.15_PT198H.grib2 2026-04-30 04:37 1.2M
20260430T00Z_MSC_GDPS_WindSpeed_AGL-80m_LatLon0.15_PT198H.grib2 2026-04-30 04:37 1.2M
20260430T00Z_MSC_GDPS_WindSpeed_IsbL-0001_LatLon0.15_PT198H.grib2 2026-04-30 04:37 650K
20260430T00Z_MSC_GDPS_WindSpeed_IsbL-0005_LatLon0.15_PT198H.grib2 2026-04-30 04:37 688K
20260430T00Z_MSC_GDPS_WindSpeed_IsbL-0010_LatLon0.15_PT198H.grib2 2026-04-30 04:37 700K
20260430T00Z_MSC_GDPS_WindSpeed_IsbL-0020_LatLon0.15_PT198H.grib2 2026-04-30 04:37 654K
20260430T00Z_MSC_GDPS_WindSpeed_IsbL-0030_LatLon0.15_PT198H.grib2 2026-04-30 04:37 850K
20260430T00Z_MSC_GDPS_WindSpeed_IsbL-0050_LatLon0.15_PT198H.grib2 2026-04-30 04:37 884K
20260430T00Z_MSC_GDPS_WindSpeed_IsbL-0100_LatLon0.15_PT198H.grib2 2026-04-30 04:37 1.1M
20260430T00Z_MSC_GDPS_WindSpeed_IsbL-0150_LatLon0.15_PT198H.grib2 2026-04-30 04:37 933K
20260430T00Z_MSC_GDPS_WindSpeed_IsbL-0175_LatLon0.15_PT198H.grib2 2026-04-30 04:37 1.0M
20260430T00Z_MSC_GDPS_WindSpeed_IsbL-0200_LatLon0.15_PT198H.grib2 2026-04-30 04:37 1.0M
20260430T00Z_MSC_GDPS_WindSpeed_IsbL-0225_LatLon0.15_PT198H.grib2 2026-04-30 04:37 1.1M
20260430T00Z_MSC_GDPS_WindSpeed_IsbL-0250_LatLon0.15_PT198H.grib2 2026-04-30 04:37 1.1M
20260430T00Z_MSC_GDPS_WindSpeed_IsbL-0275_LatLon0.15_PT198H.grib2 2026-04-30 04:37 1.1M
20260430T00Z_MSC_GDPS_WindSpeed_IsbL-0300_LatLon0.15_PT198H.grib2 2026-04-30 04:37 1.1M
20260430T00Z_MSC_GDPS_WindSpeed_IsbL-0350_LatLon0.15_PT198H.grib2 2026-04-30 04:37 1.1M
20260430T00Z_MSC_GDPS_WindSpeed_IsbL-0400_LatLon0.15_PT198H.grib2 2026-04-30 04:37 1.1M
20260430T00Z_MSC_GDPS_WindSpeed_IsbL-0450_LatLon0.15_PT198H.grib2 2026-04-30 04:37 1.1M
20260430T00Z_MSC_GDPS_WindSpeed_IsbL-0500_LatLon0.15_PT198H.grib2 2026-04-30 04:37 1.1M
20260430T00Z_MSC_GDPS_WindSpeed_IsbL-0550_LatLon0.15_PT198H.grib2 2026-04-30 04:37 1.1M
20260430T00Z_MSC_GDPS_WindSpeed_IsbL-0600_LatLon0.15_PT198H.grib2 2026-04-30 04:37 1.1M
20260430T00Z_MSC_GDPS_WindSpeed_IsbL-0650_LatLon0.15_PT198H.grib2 2026-04-30 04:37 1.4M
20260430T00Z_MSC_GDPS_WindSpeed_IsbL-0700_LatLon0.15_PT198H.grib2 2026-04-30 04:37 1.5M
20260430T00Z_MSC_GDPS_WindSpeed_IsbL-0750_LatLon0.15_PT198H.grib2 2026-04-30 04:37 1.5M
20260430T00Z_MSC_GDPS_WindSpeed_IsbL-0800_LatLon0.15_PT198H.grib2 2026-04-30 04:37 1.6M
20260430T00Z_MSC_GDPS_WindSpeed_IsbL-0850_LatLon0.15_PT198H.grib2 2026-04-30 04:37 1.7M
20260430T00Z_MSC_GDPS_WindSpeed_IsbL-0875_LatLon0.15_PT198H.grib2 2026-04-30 04:37 1.8M
20260430T00Z_MSC_GDPS_WindSpeed_IsbL-0900_LatLon0.15_PT198H.grib2 2026-04-30 04:37 1.8M
20260430T00Z_MSC_GDPS_WindSpeed_IsbL-0925_LatLon0.15_PT198H.grib2 2026-04-30 04:37 1.8M
20260430T00Z_MSC_GDPS_WindSpeed_IsbL-0950_LatLon0.15_PT198H.grib2 2026-04-30 04:37 1.8M
20260430T00Z_MSC_GDPS_WindSpeed_IsbL-0970_LatLon0.15_PT198H.grib2 2026-04-30 04:37 1.9M
20260430T00Z_MSC_GDPS_WindSpeed_IsbL-0985_LatLon0.15_PT198H.grib2 2026-04-30 04:37 1.9M
20260430T00Z_MSC_GDPS_WindSpeed_IsbL-1000_LatLon0.15_PT198H.grib2 2026-04-30 04:37 1.8M
20260430T00Z_MSC_GDPS_WindSpeed_IsbL-1015_LatLon0.15_PT198H.grib2 2026-04-30 04:37 1.8M
20260430T00Z_MSC_GDPS_WindU_AGL-10m_LatLon0.15_PT198H.grib2 2026-04-30 04:37 1.3M
20260430T00Z_MSC_GDPS_WindU_AGL-120m_LatLon0.15_PT198H.grib2 2026-04-30 04:37 958K
20260430T00Z_MSC_GDPS_WindU_AGL-40m_LatLon0.15_PT198H.grib2 2026-04-30 04:37 953K
20260430T00Z_MSC_GDPS_WindU_AGL-80m_LatLon0.15_PT198H.grib2 2026-04-30 04:37 957K
20260430T00Z_MSC_GDPS_WindU_IsbL-0001_LatLon0.15_PT198H.grib2 2026-04-30 04:37 506K
20260430T00Z_MSC_GDPS_WindU_IsbL-0005_LatLon0.15_PT198H.grib2 2026-04-30 04:37 687K
20260430T00Z_MSC_GDPS_WindU_IsbL-0010_LatLon0.15_PT198H.grib2 2026-04-30 04:37 696K
20260430T00Z_MSC_GDPS_WindU_IsbL-0020_LatLon0.15_PT198H.grib2 2026-04-30 04:37 723K
20260430T00Z_MSC_GDPS_WindU_IsbL-0030_LatLon0.15_PT198H.grib2 2026-04-30 04:37 729K
20260430T00Z_MSC_GDPS_WindU_IsbL-0050_LatLon0.15_PT198H.grib2 2026-04-30 04:37 755K
20260430T00Z_MSC_GDPS_WindU_IsbL-0100_LatLon0.15_PT198H.grib2 2026-04-30 04:37 853K
20260430T00Z_MSC_GDPS_WindU_IsbL-0150_LatLon0.15_PT198H.grib2 2026-04-30 04:37 1.0M
20260430T00Z_MSC_GDPS_WindU_IsbL-0175_LatLon0.15_PT198H.grib2 2026-04-30 04:37 1.0M
20260430T00Z_MSC_GDPS_WindU_IsbL-0200_LatLon0.15_PT198H.grib2 2026-04-30 04:37 1.0M
20260430T00Z_MSC_GDPS_WindU_IsbL-0225_LatLon0.15_PT198H.grib2 2026-04-30 04:37 849K
20260430T00Z_MSC_GDPS_WindU_IsbL-0250_LatLon0.15_PT198H.grib2 2026-04-30 04:37 850K
20260430T00Z_MSC_GDPS_WindU_IsbL-0275_LatLon0.15_PT198H.grib2 2026-04-30 04:37 878K
20260430T00Z_MSC_GDPS_WindU_IsbL-0300_LatLon0.15_PT198H.grib2 2026-04-30 04:37 870K
20260430T00Z_MSC_GDPS_WindU_IsbL-0350_LatLon0.15_PT198H.grib2 2026-04-30 04:37 886K
20260430T00Z_MSC_GDPS_WindU_IsbL-0400_LatLon0.15_PT198H.grib2 2026-04-30 04:37 886K
20260430T00Z_MSC_GDPS_WindU_IsbL-0450_LatLon0.15_PT198H.grib2 2026-04-30 04:37 886K
20260430T00Z_MSC_GDPS_WindU_IsbL-0500_LatLon0.15_PT198H.grib2 2026-04-30 04:37 1.1M
20260430T00Z_MSC_GDPS_WindU_IsbL-0550_LatLon0.15_PT198H.grib2 2026-04-30 04:37 1.1M
20260430T00Z_MSC_GDPS_WindU_IsbL-0600_LatLon0.15_PT198H.grib2 2026-04-30 04:37 1.1M
20260430T00Z_MSC_GDPS_WindU_IsbL-0650_LatLon0.15_PT198H.grib2 2026-04-30 04:37 1.2M
20260430T00Z_MSC_GDPS_WindU_IsbL-0700_LatLon0.15_PT198H.grib2 2026-04-30 04:37 1.2M
20260430T00Z_MSC_GDPS_WindU_IsbL-0750_LatLon0.15_PT198H.grib2 2026-04-30 04:37 1.3M
20260430T00Z_MSC_GDPS_WindU_IsbL-0800_LatLon0.15_PT198H.grib2 2026-04-30 04:37 1.3M
20260430T00Z_MSC_GDPS_WindU_IsbL-0850_LatLon0.15_PT198H.grib2 2026-04-30 04:37 1.4M
20260430T00Z_MSC_GDPS_WindU_IsbL-0875_LatLon0.15_PT198H.grib2 2026-04-30 04:37 1.4M
20260430T00Z_MSC_GDPS_WindU_IsbL-0900_LatLon0.15_PT198H.grib2 2026-04-30 04:37 1.4M
20260430T00Z_MSC_GDPS_WindU_IsbL-0925_LatLon0.15_PT198H.grib2 2026-04-30 04:37 1.4M
20260430T00Z_MSC_GDPS_WindU_IsbL-0950_LatLon0.15_PT198H.grib2 2026-04-30 04:37 1.4M
20260430T00Z_MSC_GDPS_WindU_IsbL-0970_LatLon0.15_PT198H.grib2 2026-04-30 04:37 1.4M
20260430T00Z_MSC_GDPS_WindU_IsbL-0985_LatLon0.15_PT198H.grib2 2026-04-30 04:37 1.4M
20260430T00Z_MSC_GDPS_WindU_IsbL-1000_LatLon0.15_PT198H.grib2 2026-04-30 04:37 1.4M
20260430T00Z_MSC_GDPS_WindU_IsbL-1015_LatLon0.15_PT198H.grib2 2026-04-30 04:37 1.3M
20260430T00Z_MSC_GDPS_WindV_AGL-10m_LatLon0.15_PT198H.grib2 2026-04-30 04:37 1.3M
20260430T00Z_MSC_GDPS_WindV_AGL-120m_LatLon0.15_PT198H.grib2 2026-04-30 04:37 1.0M
20260430T00Z_MSC_GDPS_WindV_AGL-40m_LatLon0.15_PT198H.grib2 2026-04-30 04:37 951K
20260430T00Z_MSC_GDPS_WindV_AGL-80m_LatLon0.15_PT198H.grib2 2026-04-30 04:37 1.0M
20260430T00Z_MSC_GDPS_WindV_IsbL-0001_LatLon0.15_PT198H.grib2 2026-04-30 04:37 564K
20260430T00Z_MSC_GDPS_WindV_IsbL-0005_LatLon0.15_PT198H.grib2 2026-04-30 04:37 782K
20260430T00Z_MSC_GDPS_WindV_IsbL-0010_LatLon0.15_PT198H.grib2 2026-04-30 04:37 877K
20260430T00Z_MSC_GDPS_WindV_IsbL-0020_LatLon0.15_PT198H.grib2 2026-04-30 04:37 838K
20260430T00Z_MSC_GDPS_WindV_IsbL-0030_LatLon0.15_PT198H.grib2 2026-04-30 04:37 842K
20260430T00Z_MSC_GDPS_WindV_IsbL-0050_LatLon0.15_PT198H.grib2 2026-04-30 04:37 968K
20260430T00Z_MSC_GDPS_WindV_IsbL-0100_LatLon0.15_PT198H.grib2 2026-04-30 04:37 844K
20260430T00Z_MSC_GDPS_WindV_IsbL-0150_LatLon0.15_PT198H.grib2 2026-04-30 04:37 1.0M
20260430T00Z_MSC_GDPS_WindV_IsbL-0175_LatLon0.15_PT198H.grib2 2026-04-30 04:37 1.0M
20260430T00Z_MSC_GDPS_WindV_IsbL-0200_LatLon0.15_PT198H.grib2 2026-04-30 04:37 836K
20260430T00Z_MSC_GDPS_WindV_IsbL-0225_LatLon0.15_PT198H.grib2 2026-04-30 04:37 845K
20260430T00Z_MSC_GDPS_WindV_IsbL-0250_LatLon0.15_PT198H.grib2 2026-04-30 04:37 844K
20260430T00Z_MSC_GDPS_WindV_IsbL-0275_LatLon0.15_PT198H.grib2 2026-04-30 04:37 872K
20260430T00Z_MSC_GDPS_WindV_IsbL-0300_LatLon0.15_PT198H.grib2 2026-04-30 04:37 864K
20260430T00Z_MSC_GDPS_WindV_IsbL-0350_LatLon0.15_PT198H.grib2 2026-04-30 04:37 878K
20260430T00Z_MSC_GDPS_WindV_IsbL-0400_LatLon0.15_PT198H.grib2 2026-04-30 04:37 876K
20260430T00Z_MSC_GDPS_WindV_IsbL-0450_LatLon0.15_PT198H.grib2 2026-04-30 04:37 876K
20260430T00Z_MSC_GDPS_WindV_IsbL-0500_LatLon0.15_PT198H.grib2 2026-04-30 04:37 1.1M
20260430T00Z_MSC_GDPS_WindV_IsbL-0550_LatLon0.15_PT198H.grib2 2026-04-30 04:37 1.1M
20260430T00Z_MSC_GDPS_WindV_IsbL-0600_LatLon0.15_PT198H.grib2 2026-04-30 04:37 1.1M
20260430T00Z_MSC_GDPS_WindV_IsbL-0650_LatLon0.15_PT198H.grib2 2026-04-30 04:37 1.2M
20260430T00Z_MSC_GDPS_WindV_IsbL-0700_LatLon0.15_PT198H.grib2 2026-04-30 04:37 1.2M
20260430T00Z_MSC_GDPS_WindV_IsbL-0750_LatLon0.15_PT198H.grib2 2026-04-30 04:37 1.3M
20260430T00Z_MSC_GDPS_WindV_IsbL-0800_LatLon0.15_PT198H.grib2 2026-04-30 04:37 1.3M
20260430T00Z_MSC_GDPS_WindV_IsbL-0850_LatLon0.15_PT198H.grib2 2026-04-30 04:37 1.4M
20260430T00Z_MSC_GDPS_WindV_IsbL-0875_LatLon0.15_PT198H.grib2 2026-04-30 04:37 1.4M
20260430T00Z_MSC_GDPS_WindV_IsbL-0900_LatLon0.15_PT198H.grib2 2026-04-30 04:37 1.4M
20260430T00Z_MSC_GDPS_WindV_IsbL-0925_LatLon0.15_PT198H.grib2 2026-04-30 04:37 1.4M
20260430T00Z_MSC_GDPS_WindV_IsbL-0950_LatLon0.15_PT198H.grib2 2026-04-30 04:37 1.4M
20260430T00Z_MSC_GDPS_WindV_IsbL-0970_LatLon0.15_PT198H.grib2 2026-04-30 04:37 1.4M
20260430T00Z_MSC_GDPS_WindV_IsbL-0985_LatLon0.15_PT198H.grib2 2026-04-30 04:37 1.4M
20260430T00Z_MSC_GDPS_WindV_IsbL-1000_LatLon0.15_PT198H.grib2 2026-04-30 04:37 1.4M
20260430T00Z_MSC_GDPS_WindV_IsbL-1015_LatLon0.15_PT198H.grib2 2026-04-30 04:37 1.3M